Location: Unspecified
(0.0000°N, 0.0000°E)
Time: 10:35:28
(UTC+00:00)

GALILEO 16 (26C) - Visible Passes

Search period start: 07 February 2026 00:00
Search period end: 17 February 2026 00:00
Orbit: 23213 x 23231 km, 55.4° (Epoch: 6 February)

Date Brightness Start Highest point End Pass type
(mag) Time Alt. Az. Time Alt. Az. Time Alt. Az.
8 Feb ? 06:43:57 10° NNW 17:30:16 13° E 18:29:32 10° ENE visible
9 Feb ? 17:26:55 10° SSW 21:31:42 88° E 01:24:39 10° NNE visible
11 Feb ? 00:08:33 10° SW 01:33:52 16° W 12:12:08 10° SSE visible
12 Feb ? 10:39:49 10° NW 19:56:40 61° E 23:04:27 10° NNE visible
13 Feb ? 21:27:00 10° SW 00:00:57 40° W 09:57:46 10° SSE visible
15 Feb ? 08:18:39 10° NNW 18:22:12 36° E 20:48:20 10° NE visible
